When you browse on this site, cookies collect data to enhance your experience and personalize the content and advertising you see.
Visit our Privacy Policy to learn more. By continuing to use the site, you agree to this use of cookies and data.
  • In Österreich
  • Länderverzeichnis
  • Für 7 Tage
  • Wassertemperatur
  • Satellitenkarten
  • Wetterkarte
  • News
  • Widgets
  • user-avatar
    Anmelden

    Stündliche Wetter Rovy

    Heute, 19 Mai, Sonntag

    Zeit Temperatur Niederschläge Wind Luftdruck Luftfeuchtigkeit
    00:00 +16°C° 0 mm 3 m/S 748 mmHg 80%
    01:00 +14°C° 0 mm 4 m/S 748 mmHg 80%
    02:00 +13°C° 0 mm 3 m/S 748 mmHg 80%
    03:00 +13°C° 0 mm 3 m/S 748 mmHg 80%
    04:00 +13°C° 0 mm 3 m/S 748 mmHg 80%
    05:00 +13°C° 0 mm 3 m/S 748 mmHg 80%
    06:00 +14°C° 0 mm 3 m/S 748 mmHg 76%
    07:00 +17°C° 0 mm 4 m/S 748 mmHg 71%
    08:00 +19°C° 0 mm 4 m/S 748 mmHg 66%
    09:00 +20°C° 0 mm 4 m/S 749 mmHg 62%
    10:00 +22°C° 0 mm 4 m/S 749 mmHg 57%
    11:00 +23°C° 0 mm 5 m/S 749 mmHg 53%
    12:00 +25°C° 0 mm 5 m/S 749 mmHg 52%
    13:00 +25°C° 0 mm 5 m/S 749 mmHg 51%
    14:00 +26°C° 0 mm 5 m/S 749 mmHg 50%
    15:00 +25°C° 0 mm 5 m/S 748 mmHg 52%
    16:00 +25°C° 0 mm 5 m/S 748 mmHg 54%
    17:00 +25°C° 0 mm 5 m/S 748 mmHg 56%
    18:00 +22°C° 0 mm 4 m/S 748 mmHg 62%
    19:00 +20°C° 0 mm 4 m/S 748 mmHg 67%
    20:00 +19°C° 0 mm 4 m/S 749 mmHg 73%
    21:00 +18°C° 0 mm 4 m/S 749 mmHg 73%
    22:00 +18°C° 0 mm 4 m/S 749 mmHg 74%
    23:00 +17°C° 0 mm 4 m/S 749 mmHg 75%

    Morgen, 20 Mai, Montag

    Zeit Temperatur Niederschläge Wind Luftdruck Luftfeuchtigkeit
    00:00 +17°C° 0 mm 4 m/S 749 mmHg 76%
    01:00 +17°C° 0 mm 4 m/S 750 mmHg 77%
    02:00 +15°C° 0 mm 5 m/S 750 mmHg 78%
    03:00 +15°C° 0 mm 5 m/S 750 mmHg 79%
    04:00 +15°C° 0 mm 5 m/S 750 mmHg 80%
    05:00 +14°C° 0 mm 5 m/S 750 mmHg 81%
    06:00 +16°C° 0 mm 5 m/S 750 mmHg 76%
    07:00 +17°C° 0 mm 6 m/S 750 mmHg 71%
    08:00 +19°C° 0 mm 6 m/S 751 mmHg 66%
    09:00 +21°C° 0 mm 6 m/S 751 mmHg 62%
    10:00 +22°C° 0 mm 7 m/S 751 mmHg 59%
    11:00 +23°C° 0 mm 7 m/S 751 mmHg 56%
    12:00 +24°C° 0 mm 7 m/S 750 mmHg 54%
    13:00 +24°C° 0 mm 7 m/S 750 mmHg 52%
    14:00 +26°C° 0 mm 7 m/S 750 mmHg 50%
    15:00 +24°C° 0 mm 7 m/S 750 mmHg 53%
    16:00 +24°C° 0 mm 6 m/S 749 mmHg 55%
    17:00 +24°C° 0 mm 6 m/S 749 mmHg 58%
    18:00 +22°C° 0 mm 6 m/S 749 mmHg 62%
    19:00 +21°C° 0 mm 5 m/S 749 mmHg 67%
    20:00 +20°C° 0 mm 5 m/S 749 mmHg 72%
    21:00 +19°C° 0 mm 5 m/S 749 mmHg 71%
    22:00 +19°C° 0 mm 6 m/S 749 mmHg 70%
    23:00 +19°C° 0 mm 6 m/S 749 mmHg 70%

    übermorgen, 21 Mai, Dienstag

    Zeit Temperatur Niederschläge Wind Luftdruck Luftfeuchtigkeit
    00:00 +19°C° 0 mm 6 m/S 749 mmHg 70%
    01:00 +17°C° 0 mm 6 m/S 749 mmHg 70%
    02:00 +17°C° 0 mm 6 m/S 749 mmHg 69%
    03:00 +17°C° 0 mm 6 m/S 749 mmHg 71%
    04:00 +16°C° 0 mm 6 m/S 749 mmHg 72%
    05:00 +16°C° 0 mm 6 m/S 749 mmHg 74%
    06:00 +17°C° 0 mm 6 m/S 749 mmHg 72%
    07:00 +18°C° 0 mm 7 m/S 749 mmHg 70%
    08:00 +18°C° 0 mm 7 m/S 749 mmHg 68%
    09:00 +21°C° 0.1 mm 7 m/S 748 mmHg 66%
    10:00 +22°C° 0.1 mm 8 m/S 748 mmHg 63%
    11:00 +23°C° 0.1 mm 8 m/S 748 mmHg 61%
    12:00 +23°C° 0.2 mm 8 m/S 748 mmHg 62%
    13:00 +23°C° 0.2 mm 8 m/S 748 mmHg 64%
    14:00 +23°C° 0.2 mm 8 m/S 747 mmHg 66%
    15:00 +22°C° 0.5 mm 7 m/S 747 mmHg 69%
    16:00 +22°C° 0.5 mm 6 m/S 746 mmHg 73%
    17:00 +21°C° 0.5 mm 5 m/S 746 mmHg 77%
    18:00 +20°C° 0.3 mm 5 m/S 746 mmHg 79%
    19:00 +20°C° 0.3 mm 4 m/S 746 mmHg 82%
    20:00 +19°C° 0.3 mm 4 m/S 746 mmHg 84%
    21:00 +18°C° 0.4 mm 3 m/S 746 mmHg 87%
    22:00 +18°C° 0.4 mm 3 m/S 746 mmHg 89%
    23:00 +17°C° 0.4 mm 3 m/S 746 mmHg 92%

    22 Mai, Mittwoch

    Zeit Temperatur Niederschläge Wind Luftdruck Luftfeuchtigkeit
    00:00 +17°C° 0 mm 3 m/S 746 mmHg 93%
    01:00 +16°C° 0 mm 2 m/S 746 mmHg 94%
    02:00 +16°C° 0 mm 2 m/S 745 mmHg 96%
    03:00 +16°C° 0 mm 2 m/S 745 mmHg 96%
    04:00 +16°C° 0 mm 2 m/S 745 mmHg 96%
    05:00 +15°C° 0 mm 2 m/S 745 mmHg 96%
    06:00 +16°C° 0 mm 2 m/S 745 mmHg 93%
    07:00 +17°C° 0 mm 2 m/S 745 mmHg 89%
    08:00 +18°C° 0 mm 2 m/S 745 mmHg 85%
    09:00 +19°C° 0.5 mm 2 m/S 745 mmHg 81%
    10:00 +20°C° 0.5 mm 3 m/S 745 mmHg 77%
    11:00 +21°C° 0.5 mm 3 m/S 745 mmHg 73%
    12:00 +21°C° 0.8 mm 3 m/S 745 mmHg 73%
    13:00 +21°C° 0.8 mm 3 m/S 745 mmHg 72%
    14:00 +21°C° 0.8 mm 3 m/S 744 mmHg 71%
    15:00 +21°C° 0.4 mm 3 m/S 744 mmHg 71%
    16:00 +21°C° 0.4 mm 3 m/S 744 mmHg 70%
    17:00 +21°C° 0.4 mm 2 m/S 744 mmHg 69%
    18:00 +20°C° 0 mm 2 m/S 744 mmHg 74%
    19:00 +18°C° 0 mm 2 m/S 744 mmHg 79%
    20:00 +17°C° 0 mm 2 m/S 743 mmHg 84%
    21:00 +16°C° 0 mm 2 m/S 743 mmHg 86%
    22:00 +16°C° 0 mm 1 m/S 743 mmHg 88%
    23:00 +15°C° 0 mm 1 m/S 743 mmHg 90%

    23 Mai, Donnerstag

    Zeit Temperatur Niederschläge Wind Luftdruck Luftfeuchtigkeit
    00:00 +15°C° 0 mm 1 m/S 743 mmHg 92%
    01:00 +14°C° 0 mm 1 m/S 743 mmHg 93%
    02:00 +14°C° 0 mm 1 m/S 743 mmHg 95%
    03:00 +14°C° 0 mm 2 m/S 743 mmHg 95%
    04:00 +14°C° 0 mm 2 m/S 743 mmHg 95%
    05:00 +14°C° 0 mm 2 m/S 743 mmHg 95%
    06:00 +16°C° 0.1 mm 2 m/S 743 mmHg 90%
    07:00 +17°C° 0.1 mm 2 m/S 743 mmHg 84%
    08:00 +19°C° 0.1 mm 2 m/S 743 mmHg 79%
    09:00 +20°C° 1.1 mm 3 m/S 743 mmHg 77%
    10:00 +20°C° 1.1 mm 3 m/S 743 mmHg 75%
    11:00 +21°C° 1.1 mm 3 m/S 743 mmHg 73%
    12:00 +21°C° 1 mm 3 m/S 743 mmHg 72%
    13:00 +21°C° 1 mm 4 m/S 743 mmHg 72%
    14:00 +21°C° 1 mm 5 m/S 743 mmHg 72%
    15:00 +21°C° 0.4 mm 4 m/S 743 mmHg 73%
    16:00 +21°C° 0.4 mm 4 m/S 743 mmHg 73%
    17:00 +21°C° 0.4 mm 4 m/S 742 mmHg 73%
    18:00 +20°C° 0.6 mm 3 m/S 743 mmHg 79%
    19:00 +18°C° 0.6 mm 3 m/S 743 mmHg 84%
    20:00 +17°C° 0.6 mm 2 m/S 743 mmHg 90%
    21:00 +16°C° 0.4 mm 2 m/S 743 mmHg 91%
    22:00 +16°C° 0.4 mm 2 m/S 743 mmHg 92%
    23:00 +16°C° 0.4 mm 2 m/S 743 mmHg 93%

    24 Mai, Freitag

    Zeit Temperatur Niederschläge Wind Luftdruck Luftfeuchtigkeit
    00:00 +15°C° 0.1 mm 2 m/S 743 mmHg 93%
    01:00 +15°C° 0.1 mm 2 m/S 743 mmHg 94%
    02:00 +15°C° 0.1 mm 2 m/S 742 mmHg 95%
    03:00 +15°C° 0.3 mm 2 m/S 742 mmHg 95%
    04:00 +15°C° 0.3 mm 2 m/S 743 mmHg 95%
    05:00 +15°C° 0.3 mm 2 m/S 743 mmHg 95%
    06:00 +16°C° 0 mm 2 m/S 743 mmHg 91%
    07:00 +18°C° 0 mm 3 m/S 743 mmHg 87%
    08:00 +19°C° 0 mm 3 m/S 743 mmHg 82%
    09:00 +20°C° 1.5 mm 3 m/S 742 mmHg 79%
    10:00 +21°C° 1.5 mm 3 m/S 742 mmHg 75%
    11:00 +24°C° 1.5 mm 3 m/S 742 mmHg 71%
    12:00 +23°C° 1.3 mm 4 m/S 742 mmHg 69%
    13:00 +23°C° 1.3 mm 4 m/S 742 mmHg 68%
    14:00 +23°C° 1.3 mm 4 m/S 741 mmHg 67%
    15:00 +23°C° 0.8 mm 4 m/S 741 mmHg 68%
    16:00 +22°C° 0.8 mm 3 m/S 741 mmHg 70%
    17:00 +22°C° 0.8 mm 3 m/S 741 mmHg 71%
    18:00 +20°C° 0.2 mm 3 m/S 740 mmHg 78%
    19:00 +19°C° 0.2 mm 2 m/S 740 mmHg 86%
    20:00 +17°C° 0.2 mm 2 m/S 740 mmHg 93%
    21:00 +16°C° 0 mm 2 m/S 740 mmHg 94%
    22:00 +16°C° 0 mm 2 m/S 740 mmHg 96%
    23:00 +15°C° 0 mm 2 m/S 740 mmHg 97%
    Mehr zeigen